Date,TemperatureHighF,TemperatureAvgF,TemperatureLowF,DewpointHighF,DewpointAvgF,DewpointLowF,HumidityHigh,HumidityAvg,HumidityLow,PressureMaxIn,PressureMinIn,WindSpeedMaxMPH,WindSpeedAvgMPH,GustSpeedMaxMPH,PrecipitationSumIn
2013-1-1,27.4,23.7,17.6,19.0,16.1,11.5,78,73,68,30.26,30.10,7,2,7,0.00
2013-1-2,27.7,23.3,18.4,16.7,14.2,9.8,73,68,62,30.30,30.24,6,2,8,0.00
2013-1-3,22.1,17.6,12.6,13.5,10.0,6.4,77,72,67,30.24,30.08,3,0,3,0.00
2013-1-4,26.6,18.6,10.4,18.5,11.8,4.9,79,75,70,30.16,30.10,5,1,5,0.00
2013-1-5,28.3,22.8,16.7,21.4,16.8,11.4,81,78,74,30.15,29.96,4,1,5,0.00
2013-1-6,31.7,27.7,23.2,25.7,22.3,18.3,83,80,77,29.96,29.81,6,1,10,0.00
2013-1-7,35.5,31.3,28.4,28.6,24.7,22.3,79,76,73,29.82,29.54,6,1,10,0.00
2013-1-8,43.0,38.0,35.1,31.3,29.2,26.6,77,71,58,29.79,29.55,7,2,7,0.00
2013-1-9,41.6,39.0,34.9,35.3,33.2,28.7,89,80,67,29.79,29.50,6,2,9,0.39
2013-1-10,37.6,31.9,22.7,32.4,27.6,16.6,88,84,76,29.64,29.50,5,1,6,0.29
2013-1-11,24.5,20.0,13.3,16.6,13.1,7.0,82,74,64,29.97,29.64,5,1,5,0.00
2013-1-12,19.1,13.1,6.8,11.0,6.5,0.8,79,74,69,30.02,29.95,5,1,7,0.00
2013-1-13,19.8,12.1,7.6,11.4,5.5,1.8,79,75,68,30.10,30.00,5,1,6,0.02
2013-1-14,21.2,15.0,9.0,14.4,9.0,3.2,80,77,73,30.13,30.03,10,1,10,0.02
2013-1-15,31.3,23.7,19.3,24.1,18.2,14.2,83,79,73,30.27,30.14,9,2,9,0.00
2013-1-16,24.3,18.6,14.4,18.9,14.0,10.7,86,82,78,30.30,30.25,8,1,11,0.00
2013-1-17,24.1,17.3,10.8,18.9,12.7,6.0,86,82,78,30.31,30.10,5,1,8,0.00
2013-1-18,35.3,23.3,13.5,27.5,17.9,9.3,86,80,73,30.12,29.95,6,1,8,0.00
2013-1-19,36.2,27.2,21.1,26.3,20.3,15.4,80,75,64,30.18,30.07,6,1,7,0.00
2013-1-20,36.0,27.4,19.8,26.5,20.1,14.6,82,74,66,30.20,30.12,5,1,6,0.00
2013-1-21,31.0,24.3,15.5,23.3,17.4,9.6,79,75,71,30.13,29.98,4,0,6,0.00
2013-1-22,28.3,21.1,11.9,20.7,14.7,6.8,81,76,72,30.07,29.94,4,0,4,0.00
2013-1-23,31.5,25.3,19.1,23.7,18.5,13.9,82,76,67,29.97,29.79,6,1,7,0.00
2013-1-24,45.2,37.3,30.6,34.2,27.7,23.2,86,69,53,29.99,29.79,7,2,9,0.00
2013-1-25,43.2,36.6,32.0,34.2,29.5,24.8,82,75,69,29.97,29.74,6,1,9,0.02
2013-1-26,40.3,36.5,32.8,34.7,32.0,29.3,89,84,76,29.76,29.66,5,1,8,0.06
2013-1-27,40.0,33.3,28.8,29.7,25.9,23.1,83,74,58,29.75,29.69,8,2,10,0.00
2013-1-28,39.1,32.0,27.4,26.4,23.4,21.1,80,71,54,29.73,29.60,8,3,11,0.00
2013-1-29,36.0,31.0,27.7,28.0,25.2,23.8,86,79,70,29.92,29.62,4,1,6,0.15
2013-1-30,42.5,34.9,28.1,33.7,28.5,23.8,87,78,68,29.94,29.84,14,2,15,0.00
2013-1-31,44.8,41.5,39.2,34.8,32.0,30.2,71,69,64,30.01,29.92,8,2,13,0.00
2013-2-1,45.5,40.2,35.6,34.9,30.3,26.3,83,68,53,30.18,29.92,13,4,18,0.00
2013-2-2,42.1,35.2,29.2,29.5,25.6,22.2,76,68,58,30.25,30.07,7,2,9,0.00
2013-2-3,40.9,32.8,23.8,30.5,25.2,19.1,84,74,65,30.07,29.86,5,1,5,0.00
2013-2-4,45.0,41.4,36.9,31.2,29.5,27.6,69,62,56,29.88,29.81,11,3,14,0.00
2013-2-5,44.3,40.6,35.8,35.6,31.2,27.2,77,69,59,29.82,29.62,9,2,9,0.00
2013-2-6,44.1,37.5,30.2,35.6,28.7,22.8,83,71,60,29.89,29.74,10,3,12,0.01
2013-2-7,37.6,32.3,27.0,27.5,24.2,21.0,79,72,64,29.88,29.74,6,1,6,0.00
2013-2-8,39.8,35.1,29.7,30.6,27.9,24.4,83,75,67,29.85,29.78,8,1,8,0.00
2013-2-9,35.3,32.2,30.2,26.9,24.5,22.0,86,73,64,29.90,29.76,5,2,6,0.03
2013-2-10,37.4,31.1,26.8,28.5,22.9,18.5,84,72,53,30.00,29.90,9,2,10,0.00
2013-2-11,36.4,30.4,24.1,25.4,21.6,17.3,75,70,63,29.97,29.92,7,2,8,0.00
2013-2-12,41.4,36.1,31.7,30.8,27.1,23.0,78,70,62,30.02,29.92,8,2,16,0.00
2013-2-13,42.5,39.8,34.9,33.7,30.6,27.1,77,70,64,30.04,29.87,12,3,15,0.00
2013-2-14,41.8,36.9,30.6,28.6,25.3,22.8,74,63,49,30.23,30.04,17,3,18,0.00
2013-2-15,45.2,39.8,33.3,30.7,27.8,24.7,71,62,55,30.26,30.10,6,2,7,0.00
2013-2-16,42.5,35.1,26.3,33.9,27.8,20.9,83,75,66,30.10,29.66,14,2,17,0.03
2013-2-17,40.0,35.5,32.4,30.9,27.9,25.5,85,74,66,29.89,29.70,11,2,11,0.12
2013-2-18,42.8,34.8,28.4,27.6,24.3,21.1,84,67,46,29.90,29.63,10,2,10,0.00
2013-2-19,41.4,34.6,28.6,27.9,23.5,20.4,73,64,49,29.63,29.50,6,1,6,0.00
2013-2-20,38.9,34.3,29.9,28.8,23.4,18.3,82,65,49,29.76,29.61,8,2,10,0.02
2013-2-21,39.6,31.2,21.8,25.0,19.4,12.8,71,62,48,29.85,29.74,10,3,13,0.00
2013-2-22,44.3,36.6,29.5,28.8,25.3,22.5,77,64,49,29.80,29.49,14,3,21,0.00
2013-2-23,38.5,34.3,29.3,29.5,21.3,16.7,79,59,48,29.96,29.47,18,4,19,0.00
2013-2-24,39.4,33.1,28.3,23.6,20.2,17.2,68,59,48,30.05,29.93,9,3,15,0.00
2013-2-25,41.9,34.2,28.4,27.1,22.0,18.0,71,61,51,29.93,29.72,12,3,14,0.00
2013-2-26,40.0,34.8,29.2,24.4,21.5,17.7,73,59,45,30.07,29.84,8,2,11,0.00
2013-2-27,40.1,32.7,24.8,24.0,20.1,16.0,71,60,50,30.08,30.03,8,2,8,0.00
2013-2-28,45.2,37.3,30.4,34.2,28.2,19.3,80,70,60,30.15,30.04,5,1,6,0.01
2013-3-1,53.3,43.0,36.7,40.8,34.7,30.1,84,73,59,30.18,30.14,7,2,13,0.00
2013-3-2,53.3,43.0,33.8,38.7,33.8,28.4,83,71,53,30.15,29.78,8,2,12,0.03
2013-3-3,43.7,37.8,29.2,37.0,25.4,17.1,84,62,38,29.92,29.64,21,6,26,0.03
2013-3-4,37.6,30.9,22.7,23.9,18.9,13.1,81,62,44,30.10,29.92,8,2,12,0.03
2013-3-5,42.1,31.8,20.0,21.9,17.5,11.3,71,56,42,29.96,29.72,6,2,7,0.00
2013-3-6,43.2,36.1,30.6,35.8,27.7,19.8,81,72,51,29.72,29.50,8,2,10,0.20
2013-3-7,46.1,38.4,30.6,33.5,27.5,20.5,84,66,43,29.87,29.64,8,2,12,0.01
2013-3-8,46.4,33.9,23.9,26.7,21.3,17.3,77,61,35,29.86,29.74,9,2,11,0.00
2013-3-9,48.4,37.3,28.6,28.1,23.1,18.5,71,57,39,30.17,29.87,16,4,16,0.00
2013-3-10,50.9,38.2,27.0,31.7,24.6,19.3,80,59,39,30.20,29.98,12,4,16,0.00
2013-3-11,49.7,41.4,35.1,30.5,24.1,17.6,78,53,30,30.04,29.96,16,5,19,0.00
2013-3-12,47.7,38.8,32.6,37.0,28.2,18.5,77,66,49,30.03,29.90,8,2,12,0.00
2013-3-13,61.0,48.8,40.3,41.1,35.1,28.8,81,62,32,30.02,29.95,15,2,18,0.00
2013-3-14,59.8,47.9,35.5,38.3,32.6,27.4,73,57,44,30.01,29.81,6,2,7,0.00
2013-3-15,57.2,50.4,44.1,37.6,33.9,30.2,64,53,40,29.94,29.84,12,4,16,0.00
2013-3-16,52.0,44.1,37.8,37.5,32.2,29.1,77,63,47,29.89,29.53,14,3,15,0.00
2013-3-17,41.8,35.5,30.2,32.8,24.0,20.1,77,63,44,29.81,29.48,20,5,23,0.01
2013-3-18,42.1,33.6,29.9,26.6,22.8,18.4,85,66,42,29.89,29.75,15,4,18,0.08
2013-3-19,45.4,35.3,25.0,27.9,23.9,19.4,84,65,42,30.07,29.81,8,2,9,0.00
2013-3-20,56.0,40.6,32.8,40.9,29.8,22.9,74,66,50,29.81,29.36,18,4,28,0.10
2013-3-21,41.2,34.7,30.6,27.6,21.7,17.5,77,59,42,29.80,29.58,14,4,19,0.00
2013-3-22,37.6,30.7,26.6,27.7,22.4,17.7,80,71,58,29.98,29.78,6,2,9,0.09
2013-3-23,36.7,28.8,22.0,25.4,21.0,16.5,82,73,57,30.09,29.98,6,1,8,0.00
2013-3-24,40.5,29.7,20.9,23.3,17.3,13.9,76,62,39,30.14,29.98,7,2,7,0.00
2013-3-25,47.0,33.3,20.2,23.2,18.1,11.1,70,55,37,30.00,29.82,6,2,8,0.00
2013-3-26,54.5,43.5,35.1,32.1,26.5,22.0,67,52,37,29.83,29.75,10,1,10,0.00
2013-3-27,56.0,43.8,33.5,36.3,29.6,22.9,71,58,41,29.85,29.79,9,2,14,0.00
2013-3-28,55.3,46.0,36.7,41.3,35.7,29.9,80,68,56,29.92,29.84,9,2,9,0.00
2013-3-29,57.4,47.4,40.0,43.9,36.7,33.7,81,67,50,30.03,29.91,8,2,10,0.00
2013-3-30,61.4,48.7,35.5,39.2,32.5,27.5,77,56,36,30.10,29.95,7,2,8,0.00
2013-3-31,63.7,48.6,33.8,35.6,30.6,25.0,73,52,30,29.97,29.79,9,3,10,0.00
2013-4-1,65.2,51.1,37.1,35.0,30.4,24.8,63,47,29,29.87,29.77,7,2,11,0.00
2013-4-2,65.5,50.7,36.5,40.2,32.5,26.6,70,51,31,29.93,29.82,12,3,13,0.00
2013-4-3,64.6,52.1,41.9,42.4,35.1,31.4,73,54,32,29.96,29.85,13,2,14,0.00
2013-4-4,65.9,52.6,40.3,42.5,36.5,29.2,68,55,40,29.88,29.62,10,1,12,0.00
2013-4-5,60.8,51.7,44.3,41.0,37.2,32.7,71,58,43,29.77,29.62,20,4,20,0.00
2013-4-6,58.3,46.7,41.4,44.7,36.7,33.0,81,68,50,29.76,29.68,14,3,21,0.17
2013-4-7,52.7,43.6,38.2,43.7,34.3,29.6,81,70,51,29.72,29.46,12,3,17,0.07
2013-4-8,43.0,37.5,29.0,32.1,20.8,11.2,77,52,35,30.04,29.60,15,6,18,0.00
2013-4-9,48.4,35.1,22.0,23.4,15.6,8.8,60,46,30,30.16,30.00,10,2,13,0.00
2013-4-10,57.2,44.5,36.0,40.1,31.1,21.0,74,59,46,30.02,29.67,9,3,18,0.08
2013-4-11,50.0,45.3,40.0,36.0,30.2,24.1,72,56,42,29.90,29.76,14,5,18,0.00
2013-4-12,58.3,46.6,35.3,31.2,26.8,23.9,67,48,31,29.90,29.45,11,3,19,0.00
2013-4-13,47.9,41.8,34.7,35.0,26.8,18.8,73,56,38,29.61,29.38,21,4,24,0.01
2013-4-14,43.4,36.4,31.7,33.6,28.1,22.0,81,72,58,29.73,29.62,12,3,15,0.08
2013-4-15,40.1,33.1,26.3,21.6,14.8,10.2,66,48,33,29.93,29.73,16,5,17,0.00
2013-4-16,41.8,32.3,22.1,19.6,12.8,8.2,58,45,32,30.10,29.92,16,4,16,0.00
2013-4-17,46.4,34.5,20.7,15.2,11.2,6.6,56,39,24,30.16,30.04,14,3,18,0.00
2013-4-18,52.2,41.6,28.4,25.8,20.0,12.0,53,42,33,30.09,30.03,14,4,17,0.00
2013-4-19,53.6,47.5,41.4,40.9,32.5,24.3,67,56,45,30.02,29.75,10,3,14,0.04
2013-4-20,56.7,49.0,41.9,37.3,34.1,30.6,74,57,38,29.89,29.77,20,5,23,0.00
2013-4-21,53.6,41.0,27.4,36.9,30.9,21.1,90,68,47,30.05,29.81,14,4,18,0.29
2013-4-22,40.7,32.3,22.0,23.0,19.9,15.2,77,61,46,30.23,30.05,10,2,10,0.00
2013-4-23,49.1,36.8,23.8,27.3,22.0,15.6,72,56,37,30.17,29.99,12,2,13,0.00
2013-4-24,61.0,45.9,29.7,32.1,25.8,21.4,72,49,23,30.11,29.83,13,3,14,0.00
2013-4-25,65.9,54.2,40.3,32.9,27.7,23.4,58,38,24,29.91,29.75,20,5,20,0.00
2013-4-26,70.6,56.8,39.2,37.8,31.5,26.7,62,40,25,30.02,29.90,18,5,19,0.00
2013-4-27,70.2,58.2,45.0,39.0,32.4,28.8,59,40,23,29.98,29.84,17,6,21,0.00
2013-4-28,60.7,53.3,48.4,39.8,35.7,32.5,63,51,41,29.90,29.73,18,5,20,0.00
2013-4-29,53.3,45.5,36.9,39.6,31.4,21.1,73,58,43,29.73,29.53,30,6,31,0.08
2013-4-30,45.2,36.7,32.4,30.6,23.3,17.5,79,59,40,30.10,29.73,12,3,12,0.21
2013-5-1,51.5,41.1,30.4,35.4,27.8,22.5,84,62,34,30.38,30.10,9,2,10,0.00
2013-5-2,64.8,47.9,30.1,31.3,25.9,20.3,68,46,24,30.42,30.09,7,2,8,0.00
2013-5-3,58.3,50.8,44.8,40.3,33.9,25.0,67,53,38,30.09,30.04,10,3,14,0.00
2013-5-4,61.7,52.6,41.0,41.1,35.9,32.2,78,55,34,30.12,29.99,13,3,17,0.00
2013-5-5,71.5,57.2,40.1,40.0,34.9,29.6,68,46,25,29.99,29.76,12,3,14,0.00
2013-5-6,76.0,60.7,42.5,42.8,34.5,28.2,67,41,18,29.85,29.65,7,2,9,0.00
2013-5-7,76.7,61.5,45.2,41.6,35.2,30.2,58,40,24,29.86,29.70,15,4,17,0.00
2013-5-8,78.1,64.4,47.9,44.6,36.6,31.0,55,37,21,29.94,29.83,9,3,11,0.00
2013-5-9,79.6,63.4,48.2,49.2,41.1,34.7,61,45,25,29.99,29.88,8,3,10,0.01
2013-5-10,79.6,64.5,48.6,47.5,40.8,36.6,68,45,22,30.11,29.96,14,3,22,0.03
2013-5-11,82.8,65.1,49.0,48.3,42.1,37.6,68,46,21,30.09,29.92,16,3,16,0.00
2013-5-12,85.0,68.9,53.5,51.8,44.1,39.4,61,43,23,29.98,29.82,22,4,22,0.00
2013-5-13,83.3,65.9,52.0,53.7,47.6,40.6,72,53,29,29.91,29.60,20,4,27,0.34
2013-5-14,64.6,56.8,50.0,40.6,34.9,29.0,65,45,28,29.95,29.82,15,4,18,0.00
2013-5-15,66.4,54.4,40.0,38.7,34.2,28.6,67,48,33,29.93,29.75,10,2,10,0.00
2013-5-16,65.2,54.1,47.3,46.2,40.5,36.0,82,61,41,29.81,29.71,6,1,7,0.13
2013-5-17,54.9,50.0,45.4,47.9,42.6,37.6,83,76,64,29.80,29.73,4,1,4,0.18
2013-5-18,59.4,52.5,48.6,50.6,46.3,41.7,87,80,65,29.93,29.80,6,1,9,0.35
2013-5-19,60.8,52.5,46.3,47.0,43.4,40.3,82,72,58,30.06,29.93,7,1,8,0.00
2013-5-20,70.0,59.4,49.5,48.9,43.3,40.1,80,58,35,30.10,29.87,8,2,10,0.00
2013-5-21,78.1,62.7,46.8,50.3,43.2,38.6,74,51,31,29.87,29.50,12,4,16,0.00
2013-5-22,58.9,50.1,41.4,46.9,42.1,36.0,84,74,56,29.83,29.50,11,4,14,0.22
2013-5-23,57.6,48.6,40.7,38.3,34.4,30.5,83,61,36,29.84,29.75,11,4,15,0.00
2013-5-24,63.0,52.5,41.8,40.8,35.7,32.0,71,54,38,29.88,29.71,17,3,21,0.00
2013-5-25,63.9,51.2,36.7,38.9,34.1,28.5,74,54,34,29.88,29.80,10,2,10,0.00
2013-5-26,69.7,54.7,40.0,45.2,39.3,31.3,71,57,37,29.85,29.70,12,2,13,0.00
2013-5-27,67.1,57.7,50.0,50.3,45.3,42.5,81,65,44,29.79,29.64,9,3,9,0.06
2013-5-28,62.3,54.5,50.0,50.8,47.1,44.5,85,76,59,29.69,29.64,7,2,10,0.46
2013-5-29,69.7,56.2,45.2,49.9,43.8,39.4,84,65,37,29.71,29.50,15,2,24,0.17
2013-5-30,60.3,53.6,48.2,43.7,39.0,34.3,72,58,38,29.92,29.71,10,3,13,0.01
2013-5-31,64.6,55.4,45.5,44.7,37.9,34.7,69,53,37,30.09,29.92,6,2,9,0.00
2013-6-1,70.9,57.7,40.3,43.6,37.6,32.0,73,50,28,30.11,29.86,9,2,9,0.00
2013-6-2,62.5,55.4,48.8,48.6,43.4,38.7,81,65,44,29.86,29.71,10,2,14,0.22
2013-6-3,63.7,53.1,47.0,50.4,45.6,41.5,84,76,58,29.94,29.79,10,2,13,0.28
2013-6-4,67.9,58.1,48.6,45.9,41.6,37.1,84,58,33,30.03,29.94,12,2,12,0.00
2013-6-5,78.5,62.6,43.7,48.5,42.1,35.0,73,50,32,30.00,29.81,5,2,8,0.00
2013-6-6,82.1,68.5,53.5,50.1,44.5,36.6,60,43,31,29.94,29.79,5,1,7,0.00
2013-6-7,81.2,70.0,56.3,54.5,48.1,41.5,67,47,31,29.82,29.70,15,4,20,0.00
2013-6-8,79.7,70.4,57.6,42.8,37.1,33.0,44,31,19,29.88,29.77,10,3,20,0.00
2013-6-9,81.4,68.4,51.7,47.3,35.7,27.2,58,33,16,29.84,29.68,16,4,18,0.00
2013-6-10,78.8,65.2,47.9,41.2,33.8,29.6,54,33,18,29.79,29.58,11,2,11,0.00
2013-6-11,80.6,65.2,52.4,45.4,39.6,32.4,57,40,25,29.83,29.63,12,2,16,0.00
2013-6-12,69.5,61.0,53.3,45.4,42.2,40.1,66,51,40,29.87,29.79,12,4,16,0.00
2013-6-13,63.7,55.6,49.3,49.5,45.1,41.1,79,68,50,29.92,29.79,9,3,10,0.26
2013-6-14,66.8,55.8,44.1,47.8,40.1,35.6,83,59,37,29.97,29.89,15,3,18,0.01
2013-6-15,75.8,60.9,41.4,45.4,39.0,33.4,74,48,25,29.97,29.80,6,2,7,0.00
2013-6-16,81.0,66.3,48.1,46.2,39.6,35.3,64,40,22,29.95,29.84,7,2,10,0.00
2013-6-17,86.4,71.9,56.5,51.6,44.6,37.5,57,39,21,29.90,29.71,8,2,9,0.00
2013-6-18,83.2,68.6,54.7,54.7,48.2,41.4,65,49,33,29.73,29.57,10,3,11,0.03
2013-6-19,64.4,57.1,51.3,50.2,47.6,43.7,83,71,60,29.71,29.56,7,2,8,0.42
2013-6-20,64.4,53.6,47.2,46.4,42.7,40.7,82,68,45,29.92,29.69,13,3,16,0.12
2013-6-21,68.0,56.0,41.9,47.0,41.2,36.5,82,60,37,29.94,29.86,10,2,11,0.00
2013-6-22,67.0,58.0,45.0,49.2,43.4,38.4,80,60,42,29.92,29.83,9,1,9,0.01
2013-6-23,76.1,62.7,45.0,48.8,44.3,37.5,77,54,33,29.85,29.59,6,2,9,0.00
2013-6-24,71.8,63.0,58.3,55.3,51.5,47.4,83,67,54,29.62,29.52,7,2,13,0.14
2013-6-25,75.8,61.6,54.7,55.5,52.5,50.2,86,74,43,29.80,29.62,13,2,17,0.40
2013-6-26,74.2,61.5,54.5,59.4,53.9,51.1,90,77,54,30.01,29.79,5,1,8,0.12
2013-6-27,83.7,69.6,54.0,59.8,53.7,48.3,82,60,35,30.07,30.00,7,2,10,0.00
2013-6-28,89.5,74.9,57.4,58.6,53.2,46.8,70,49,32,30.14,29.96,6,1,7,0.00
2013-6-29,85.7,74.0,61.0,61.8,55.9,50.4,70,54,39,30.04,29.85,11,3,16,0.00
2013-6-30,90.7,76.7,62.8,62.6,57.5,53.8,73,54,33,29.98,29.89,9,2,9,0.00
2013-7-1,96.1,85.8,63.4,63.7,56.7,50.4,70,40,22,30.02,29.88,8,2,8,0.00
2013-7-2,98.3,82.6,65.9,62.8,56.6,50.2,65,43,26,29.98,29.81,7,2,7,0.00
2013-7-3,92.9,82.5,68.8,64.1,53.0,44.0,60,39,21,29.91,29.78,13,4,20,0.00
2013-7-4,89.3,76.9,63.0,57.0,47.7,38.7,58,38,21,29.84,29.67,8,2,13,0.00
2013-7-5,83.3,72.5,57.2,48.6,41.9,34.6,53,35,22,29.77,29.61,9,2,13,0.00
2013-7-6,82.6,71.1,54.5,48.2,40.7,33.7,56,35,19,29.83,29.67,8,2,10,0.00
2013-7-7,85.7,72.4,54.9,48.9,43.6,37.9,56,37,24,29.81,29.68,9,2,10,0.00
2013-7-8,82.1,69.7,58.3,58.0,47.4,40.3,73,48,24,29.96,29.74,16,3,16,0.11
2013-7-9,85.0,71.2,54.4,50.9,45.6,41.3,66,42,24,30.05,29.90,6,2,8,0.00
2013-7-10,92.9,75.7,55.1,50.0,44.2,39.0,57,36,18,29.96,29.66,7,2,9,0.00
2013-7-11,85.9,74.8,63.5,53.4,44.9,33.0,53,36,19,29.76,29.68,15,4,17,0.00
2013-7-12,83.9,69.0,55.1,53.5,47.4,42.1,64,48,28,29.80,29.67,9,2,21,0.02
2013-7-13,79.7,68.9,56.9,51.0,39.2,31.3,60,37,18,29.96,29.79,10,2,12,0.00
2013-7-14,86.9,70.8,52.0,45.8,37.8,28.4,52,33,13,30.02,29.82,13,2,16,0.00
2013-7-15,90.0,73.4,55.1,47.0,39.8,34.7,49,32,16,29.88,29.75,10,3,12,0.00
2013-7-16,88.2,74.2,59.4,54.0,47.4,34.9,57,40,26,29.96,29.80,16,4,16,0.00
2013-7-17,94.1,80.2,65.9,61.4,54.9,42.7,63,44,27,29.97,29.81,12,4,16,0.00
2013-7-18,90.4,76.8,59.4,53.3,42.6,31.1,55,33,13,30.04,29.92,12,3,13,0.00
2013-7-19,90.5,75.0,56.2,45.6,38.0,29.4,48,29,13,30.00,29.83,11,3,14,0.00
2013-7-20,90.7,75.1,58.0,46.3,38.1,27.6,46,29,11,29.91,29.72,9,3,11,0.00
2013-7-21,91.6,76.4,57.1,43.8,35.3,24.8,45,25,11,29.81,29.67,8,3,11,0.00
2013-7-22,90.4,75.3,56.5,44.6,34.9,25.8,40,25,10,29.85,29.74,12,3,15,0.00
2013-7-23,91.6,76.5,56.3,44.6,38.5,34.9,47,28,15,29.97,29.83,8,2,9,0.00
2013-7-24,94.3,77.4,58.7,46.3,36.6,29.1,44,26,8,29.93,29.79,10,3,11,0.00
2013-7-25,93.8,78.6,61.9,52.6,40.5,31.2,43,28,12,29.97,29.84,8,2,10,0.00
2013-7-26,93.4,77.3,59.2,47.4,36.3,24.9,44,26,9,30.02,29.85,15,3,15,0.00
2013-7-27,88.9,75.0,58.7,44.1,33.8,27.1,38,24,12,29.89,29.74,14,3,15,0.00
2013-7-28,85.7,72.1,56.2,42.9,34.6,29.1,46,27,15,29.79,29.67,6,2,10,0.00
2013-7-29,84.2,70.9,54.9,48.6,36.4,27.0,52,31,16,29.84,29.74,9,2,12,0.00
2013-7-30,84.2,70.7,57.8,49.8,39.0,30.6,47,33,19,30.00,29.84,8,2,10,0.00
2013-7-31,88.2,72.1,54.5,47.5,39.4,33.3,49,32,15,30.05,29.84,7,2,12,0.00
2013-8-1,71.5,65.1,59.0,58.7,50.0,39.0,82,60,32,29.92,29.78,9,2,12,0.36
2013-8-2,67.5,59.5,52.9,55.1,50.5,47.2,83,73,56,29.95,29.80,12,2,12,0.02
2013-8-3,74.3,62.6,48.8,54.5,49.2,43.8,84,64,44,30.00,29.91,8,2,12,0.01
2013-8-4,82.3,67.4,51.5,53.6,47.5,40.8,77,53,26,29.98,29.84,7,2,8,0.00
2013-8-5,85.9,69.4,53.8,51.8,44.9,37.7,65,44,19,29.92,29.78,12,3,18,0.00
2013-8-6,83.3,71.3,55.3,53.0,46.3,42.5,63,43,28,29.92,29.83,5,1,7,0.00
2013-8-7,86.9,72.1,55.3,52.8,44.9,41.5,62,40,22,29.90,29.76,7,2,9,0.00
2013-8-8,86.6,72.9,56.7,50.9,43.4,35.6,54,37,17,29.90,29.78,13,3,16,0.00
2013-8-9,88.4,75.8,63.4,56.4,50.5,44.8,59,43,23,29.91,29.76,11,3,22,0.00
2013-8-10,87.5,78.3,63.2,55.7,50.1,43.8,66,39,25,29.92,29.77,8,2,14,0.00
2013-8-11,81.4,70.2,59.2,53.2,47.9,42.3,62,46,35,29.91,29.82,8,2,9,0.08
2013-8-12,85.9,70.7,57.6,56.3,47.9,41.6,60,45,26,29.94,29.83,11,2,24,0.19
2013-8-13,83.9,76.1,62.5,54.2,47.9,38.4,66,39,24,30.02,29.88,11,3,23,0.00
2013-8-14,88.4,76.0,54.7,51.5,43.7,38.5,65,34,19,29.97,29.82,8,2,9,0.00
2013-8-15,92.5,71.5,57.4,48.3,38.4,31.0,49,33,12,29.90,29.75,7,2,10,0.00
2013-8-16,92.3,77.2,58.1,48.2,41.7,34.0,48,30,17,29.88,29.78,8,2,10,0.00
2013-8-17,86.0,79.0,63.5,54.6,48.8,44.2,54,36,25,29.94,29.80,13,3,14,0.00
2013-8-18,88.2,71.8,60.5,53.5,49.2,40.3,65,47,22,29.96,29.84,9,2,13,0.00
2013-8-19,84.6,72.2,56.2,51.0,43.1,38.6,56,37,22,29.94,29.80,11,2,15,0.00
2013-8-20,83.9,71.1,57.4,50.4,43.1,37.8,55,38,21,29.92,29.81,8,2,13,0.00
2013-8-21,83.5,72.7,52.6,44.7,39.1,32.0,54,32,17,29.99,29.84,7,2,7,0.00
2013-8-22,84.4,65.4,56.7,46.1,39.1,33.9,51,39,25,29.94,29.74,7,2,7,0.00
2013-8-23,84.6,71.8,60.8,57.6,49.2,41.2,72,46,32,29.84,29.66,9,3,10,0.04
2013-8-24,86.2,71.6,56.5,53.6,47.4,42.5,67,44,25,29.82,29.65,16,2,16,0.00
2013-8-25,86.0,70.4,59.9,53.8,48.1,42.8,73,47,27,29.87,29.69,18,2,20,0.06
2013-8-26,81.5,67.7,56.2,56.8,51.8,44.5,79,60,32,29.91,29.76,7,2,8,0.00
2013-8-27,85.7,69.8,53.1,52.5,46.4,40.5,67,45,28,29.89,29.74,8,2,13,0.00
2013-8-28,81.2,69.9,60.8,56.0,50.7,45.0,65,51,40,29.91,29.77,9,3,10,0.00
2013-8-29,87.3,68.3,57.1,59.8,53.3,47.3,75,60,33,29.93,29.75,19,2,21,0.21
2013-8-30,80.3,67.3,54.2,57.9,50.3,42.6,82,58,31,30.00,29.89,12,2,16,0.01
2013-8-31,82.3,67.0,52.0,51.9,45.7,41.6,70,49,29,30.01,29.84,6,2,7,0.00
2013-9-1,88.7,67.7,53.1,51.3,44.5,39.4,63,46,24,29.91,29.72,5,2,8,0.00
2013-9-2,78.8,71.0,62.8,50.4,46.9,41.2,53,43,35,29.84,29.74,8,2,10,0.00
2013-9-3,76.7,68.6,61.7,57.1,52.0,46.4,67,56,46,29.95,29.85,6,1,8,0.00
2013-9-4,87.1,72.4,58.9,59.6,53.0,49.8,74,53,29,29.99,29.84,6,2,6,0.00
2013-9-5,77.0,70.7,64.6,61.8,55.6,49.4,74,59,45,29.95,29.82,9,3,11,0.03
2013-9-6,77.8,67.4,57.8,60.6,55.0,48.0,87,67,43,29.92,29.83,11,3,14,0.00
2013-9-7,79.0,67.9,56.7,54.3,49.0,43.7,71,52,33,29.96,29.81,8,2,11,0.00
2013-9-8,67.0,59.8,52.9,54.8,47.2,41.8,81,64,47,29.93,29.84,6,2,11,0.06
2013-9-9,76.3,65.4,57.8,54.0,49.3,45.3,69,57,42,29.93,29.86,7,2,10,0.00
2013-9-10,79.9,64.8,51.5,53.4,47.0,43.6,76,55,30,29.99,29.88,6,2,8,0.00
2013-9-11,84.8,68.3,51.8,53.4,44.7,40.8,71,47,23,30.07,29.95,14,3,16,0.00
2013-9-12,85.5,71.8,58.9,50.7,45.9,41.4,56,41,28,30.02,29.80,8,2,8,0.00
2013-9-13,84.2,70.6,57.4,53.7,46.8,42.9,62,45,24,29.82,29.68,11,2,14,0.00
2013-9-14,79.7,69.2,59.4,55.3,48.9,44.3,65,50,34,29.89,29.76,9,2,11,0.00
2013-9-15,83.9,70.9,58.0,53.7,48.7,43.2,61,46,33,29.89,29.66,13,3,17,0.00
2013-9-16,82.4,69.7,58.5,58.0,49.6,42.4,77,52,25,29.79,29.64,13,4,22,0.01
2013-9-17,68.8,59.7,51.1,51.9,47.1,41.5,73,63,51,29.74,29.48,15,2,15,0.04
2013-9-18,58.9,55.3,52.7,44.9,41.3,38.4,72,59,50,29.95,29.61,13,3,17,0.01
2013-9-19,65.9,55.9,47.2,43.3,39.4,34.1,78,56,35,30.05,29.89,12,1,12,0.00
2013-9-20,74.9,55.5,39.6,42.4,35.6,30.0,71,50,26,29.90,29.57,5,1,6,0.00
2013-9-21,68.9,57.1,45.0,41.5,36.9,31.6,63,47,35,29.59,29.53,9,3,14,0.00
2013-9-22,61.9,55.9,51.1,49.9,44.9,40.3,76,67,51,29.63,29.55,9,2,12,0.09
2013-9-23,59.4,53.2,47.7,44.4,41.1,38.3,79,64,48,29.83,29.62,13,3,21,0.02
2013-9-24,54.4,49.8,46.1,48.2,43.0,38.3,85,78,62,29.83,29.63,5,1,6,0.32
2013-9-25,47.9,46.1,45.0,43.6,42.3,40.8,88,86,82,29.67,29.58,6,2,7,0.42
2013-9-26,52.6,46.5,39.6,43.2,39.1,33.7,86,76,55,29.88,29.67,8,1,8,0.06
2013-9-27,51.8,42.1,32.6,40.9,35.1,28.2,86,77,63,29.91,29.80,9,2,14,0.01
2013-9-28,62.3,52.9,44.6,45.8,42.1,37.9,80,67,49,29.81,29.59,18,3,18,0.00
2013-9-29,56.5,50.2,45.9,45.4,40.4,37.5,76,69,61,29.65,29.41,17,5,18,0.12
2013-9-30,54.5,47.9,44.1,41.7,37.5,33.1,82,68,51,29.81,29.40,18,4,21,0.22
2013-10-1,56.5,47.6,42.1,41.4,37.6,34.7,85,69,48,29.92,29.79,9,2,13,0.06
2013-10-2,52.9,45.4,36.4,35.5,31.9,28.8,76,60,43,30.00,29.81,9,3,9,0.00
2013-10-3,49.1,44.2,40.3,33.6,30.5,28.6,70,59,46,30.20,29.80,13,3,13,0.00
2013-10-4,52.7,41.0,30.1,31.5,26.9,22.9,78,59,38,30.33,30.20,8,2,10,0.00
2013-10-5,57.4,42.4,30.4,34.6,28.4,23.2,77,59,38,30.27,30.13,6,2,7,0.00
2013-10-6,62.3,46.2,33.1,39.1,31.6,24.4,73,58,41,30.16,29.86,6,1,7,0.00
2013-10-7,65.3,48.5,35.5,38.9,32.7,27.8,77,57,32,29.87,29.67,16,3,18,0.00
2013-10-8,53.6,46.3,40.0,37.9,33.7,30.4,75,62,47,29.83,29.72,9,3,13,0.00
2013-10-9,54.9,43.9,36.5,38.4,34.6,31.5,87,71,49,29.89,29.73,8,2,11,0.00
2013-10-10,50.6,42.7,33.5,38.5,33.6,27.6,83,71,58,29.78,29.70,4,1,6,0.00
2013-10-11,54.7,45.2,37.6,37.4,32.0,26.5,78,61,40,29.92,29.78,8,2,14,0.00
2013-10-12,51.8,41.8,33.8,33.9,29.2,25.0,74,62,46,29.94,29.86,4,1,6,0.00
2013-10-13,52.7,42.4,32.8,35.9,30.0,25.4,78,62,46,30.05,29.94,8,2,9,0.00
2013-10-14,52.0,44.7,39.4,36.1,31.6,27.8,72,60,45,30.22,30.06,10,1,10,0.00
2013-10-15,51.5,39.4,29.3,34.4,28.3,22.9,78,65,48,30.24,30.01,6,1,7,0.00
2013-10-16,50.8,40.7,33.1,36.4,30.1,25.4,76,66,54,30.02,29.95,6,1,8,0.00
2013-10-17,48.2,39.7,33.5,36.7,31.5,26.6,80,73,64,30.10,29.99,6,1,8,0.00
2013-10-18,51.8,38.6,28.3,36.1,29.5,23.1,82,71,52,30.14,29.97,5,1,6,0.00
2013-10-19,54.9,42.6,31.9,36.5,30.6,25.2,78,64,48,30.00,29.84,6,2,6,0.00
2013-10-20,57.4,46.9,37.8,37.6,32.7,27.7,69,58,47,30.00,29.92,4,1,9,0.00
2013-10-21,57.4,45.1,34.7,40.3,34.6,28.7,80,67,52,30.10,29.99,6,2,7,0.00
2013-10-22,58.0,44.3,33.5,41.7,35.2,28.1,84,71,54,30.10,29.97,7,2,7,0.00
2013-10-23,57.6,43.9,33.5,39.4,33.5,27.9,82,68,49,30.06,29.96,7,2,8,0.00
2013-10-24,56.3,43.3,33.5,37.8,31.9,27.0,78,65,48,30.06,29.93,7,2,9,0.00
2013-10-25,57.1,42.8,32.0,38.3,31.5,25.8,79,65,49,30.12,29.99,7,2,9,0.00
2013-10-26,55.1,41.6,31.0,37.3,30.5,24.9,80,65,50,30.17,29.94,7,1,8,0.00
2013-10-27,50.0,39.4,29.7,34.5,27.8,19.0,79,64,44,29.94,29.62,16,4,22,0.00
2013-10-28,39.1,33.0,28.8,20.3,16.7,13.6,65,51,43,29.95,29.86,19,5,21,0.00
2013-10-29,40.5,30.6,22.7,22.1,16.9,12.6,66,57,47,29.87,29.76,6,2,7,0.00
2013-10-30,47.2,34.6,22.3,29.4,21.7,14.7,75,60,46,29.87,29.79,9,2,16,0.00
2013-10-31,45.2,42.5,39.6,35.8,30.8,24.8,77,64,48,29.96,29.84,16,2,16,0.00
2013-11-1,50.8,42.8,36.5,39.7,34.0,27.7,83,72,53,30.06,29.95,8,2,10,0.01
2013-11-2,49.1,39.0,33.7,37.4,31.1,26.2,80,74,58,29.95,29.50,14,2,18,0.07
2013-11-3,42.3,37.4,32.0,29.3,26.1,23.5,78,64,53,29.80,29.61,9,2,14,0.00
2013-11-4,37.4,32.2,27.5,29.9,26.3,22.1,83,78,71,29.95,29.78,6,2,8,0.04
2013-11-5,36.0,29.5,23.0,27.1,23.5,17.6,85,78,65,30.00,29.94,8,2,8,0.02
2013-11-6,42.1,36.1,31.1,34.4,30.3,26.9,87,80,69,30.14,29.95,3,1,4,0.03
2013-11-7,44.5,39.4,35.8,38.2,33.6,30.0,87,80,73,30.12,29.59,8,1,12,0.10
2013-11-8,47.5,41.7,39.2,36.6,32.3,28.4,77,69,59,29.97,29.71,11,3,12,0.00
2013-11-9,43.7,38.3,31.5,32.1,29.3,25.5,80,70,62,30.05,29.97,6,1,7,0.00
2013-11-10,46.1,40.5,36.0,39.0,34.2,29.3,84,78,72,30.02,29.94,6,2,6,0.01
2013-11-11,48.6,42.8,38.2,41.1,37.5,33.9,86,82,74,30.22,30.02,7,3,9,0.01
2013-11-12,46.4,40.7,36.0,39.0,35.5,32.4,88,82,74,30.21,30.11,8,3,9,0.00
2013-11-13,50.0,43.1,38.5,41.7,35.6,32.0,90,76,50,30.13,30.06,12,3,19,0.04
2013-11-14,46.1,40.3,34.0,33.4,30.6,27.5,78,68,57,30.06,29.67,9,2,12,0.00
2013-11-15,41.8,40.0,38.5,30.3,26.6,23.8,69,59,51,29.68,29.27,13,4,22,0.00
2013-11-16,42.1,37.1,33.3,33.9,28.1,24.5,85,70,55,29.47,29.12,10,3,14,0.01
2013-11-17,37.3,34.9,31.5,30.9,28.3,25.4,83,77,71,29.79,29.47,10,3,12,0.01
2013-11-18,45.5,39.5,34.0,30.8,27.7,23.4,71,63,54,29.82,29.61,10,2,14,0.00
2013-11-19,52.6,43.8,35.8,39.3,34.8,28.5,76,71,58,29.61,29.47,12,2,12,0.00
2013-11-20,44.5,36.5,25.0,36.8,21.3,9.8,77,55,35,30.10,29.54,12,3,14,0.00
2013-11-21,29.9,21.8,15.1,14.8,9.6,6.2,68,59,49,30.40,30.11,3,1,5,0.00
2013-11-22,30.1,21.1,13.3,16.8,10.8,5.6,72,64,56,30.50,30.38,4,1,6,0.00
2013-11-23,30.6,21.8,14.8,18.5,12.5,7.0,73,67,59,30.43,30.14,5,1,6,0.00
2013-11-24,33.1,25.7,17.5,21.8,17.0,11.1,77,70,62,30.13,30.03,5,1,6,0.00
2013-11-25,37.8,30.5,23.2,25.6,21.0,16.7,77,68,60,30.23,30.09,4,1,5,0.00
2013-11-26,37.1,30.0,23.4,26.4,21.9,17.5,79,72,64,30.21,29.98,5,1,5,0.00
2013-11-27,36.9,29.4,24.1,28.3,22.7,18.9,82,76,70,30.01,29.92,3,0,4,0.00
2013-11-28,32.9,26.2,21.6,26.2,21.0,17.3,85,80,75,30.01,29.93,4,0,6,0.00
2013-11-29,33.5,26.8,20.2,27.6,22.0,15.8,87,82,78,30.05,29.96,5,1,8,0.00
2013-11-30,41.9,36.5,32.9,34.0,30.5,27.3,82,79,73,30.04,29.97,4,1,9,0.00
2013-12-1,43.6,39.6,35.5,39.0,35.3,31.1,89,84,77,29.97,29.51,11,3,15,0.16
2013-12-2,41.4,35.5,20.5,37.9,29.3,16.9,88,78,64,29.73,29.41,10,4,13,0.31
2013-12-3,20.5,16.1,10.6,16.9,5.1,1.3,86,62,47,30.00,29.73,11,2,11,0.01
2013-12-4,14.6,8.4,3.2,3.7,-1.5,-5.5,70,64,48,30.06,29.99,8,1,10,0.00
2013-12-5,10.1,5.3,1.1,0.3,-3.0,-6.8,73,68,63,30.04,29.96,3,0,4,0.00
2013-12-6,5.4,3.0,-2.3,-3.5,-8.2,-13.0,67,59,48,30.09,30.01,10,2,12,0.00
2013-12-7,3.1,-2.0,-6.3,-10.2,-13.2,-16.8,63,58,52,30.03,29.91,8,2,9,0.00
2013-12-8,7.6,-0.2,-6.7,-0.5,-8.1,-15.1,73,69,63,30.15,30.00,5,1,8,0.00
2013-12-9,11.9,6.6,-1.8,6.0,0.0,-9.1,78,74,70,30.18,30.02,2,0,2,0.00
2013-12-10,28.3,21.2,11.5,20.6,14.9,6.2,84,76,70,30.14,29.98,4,1,7,0.00
2013-12-11,32.2,25.5,21.1,23.2,18.7,15.6,80,75,67,30.19,30.11,7,1,8,0.00
2013-12-12,30.4,26.0,22.9,23.8,20.3,17.0,81,79,75,30.11,29.89,9,1,11,0.00
2013-12-13,36.5,31.1,26.1,30.2,26.0,21.1,86,81,76,30.14,29.89,5,1,6,0.18
2013-12-14,38.2,34.1,30.8,32.0,29.5,26.8,88,83,78,30.18,30.06,5,1,7,0.00
2013-12-15,46.4,37.5,28.4,33.8,29.8,25.0,88,75,59,30.08,29.99,13,3,17,0.00
2013-12-16,47.3,42.8,34.4,32.7,28.2,22.9,63,56,44,30.15,30.03,12,4,16,0.00
2013-12-17,38.5,32.2,26.3,27.1,23.4,19.5,77,70,62,30.15,29.76,6,2,9,0.00
2013-12-18,45.5,42.1,34.6,29.8,27.6,25.2,78,57,49,29.76,29.61,10,2,16,0.00
2013-12-19,34.4,26.4,21.8,29.0,17.8,12.8,82,70,61,29.92,29.64,10,2,13,0.00
2013-12-20,25.7,22.2,18.0,20.0,15.8,10.6,84,76,69,29.82,29.43,3,0,4,0.23
2013-12-21,35.6,29.1,23.4,27.9,23.7,19.3,86,80,72,29.82,29.47,5,1,6,0.01
2013-12-22,38.9,33.3,29.2,30.7,27.4,24.9,86,79,69,30.03,29.81,7,2,7,0.00
2013-12-23,41.8,35.8,32.0,35.6,30.8,27.6,87,82,67,30.03,29.77,11,2,14,0.25
2013-12-24,39.1,35.3,27.0,28.3,24.6,18.8,73,65,57,30.28,29.97,12,4,15,0.00
2013-12-25,30.6,25.5,19.3,22.3,18.4,13.4,78,74,70,30.31,30.13,7,1,10,0.00
2013-12-26,39.2,31.9,27.0,27.9,23.8,20.3,77,72,63,30.17,30.06,4,1,6,0.00
2013-12-27,43.6,30.2,23.0,29.3,23.7,18.6,84,77,53,30.09,29.81,13,1,17,0.00
2013-12-28,42.5,38.3,34.7,30.2,25.7,21.4,67,61,54,30.16,29.87,11,4,14,0.00
2013-12-29,36.2,32.5,25.6,25.6,21.6,16.6,69,64,58,30.16,29.97,8,2,8,0.00
2013-12-30,37.1,34.2,29.7,29.3,26.2,22.4,82,73,68,30.04,29.87,4,1,6,0.01
2013-12-31,42.3,37.5,34.0,35.1,31.3,28.5,86,79,67,30.02,29.83,8,2,12,0.03
2014-1-1,40.7,34.4,29.2,29.1,25.7,21.9,76,70,61,30.18,30.02,8,1,8,0.00
2014-1-2,38.9,32.6,28.1,30.2,25.6,22.1,81,75,69,30.13,29.63,8,1,11,0.00